EW4595 Weather Reports


Display with metric or nautical units.
time (UTC)temp
F
wind
direction
speed
MPH
gust
MPH
rain 1hr
in
rain 24hr
in
rain mn
in
humidity
%
barometer
mb
20260505124303 67 65 1.0 4.0 0.00 0.00 0.00 94 1009.4
20260505124209 67 62 2.0 4.0 0.00 0.00 0.00 94 1009.1
20260505124104 67 67 2.0 4.0 0.00 0.00 0.00 94 1009.2
20260505124004 67 68 1.0 2.0 0.00 0.00 0.00 94 1009.1
20260505123905 67 64 0.0 2.0 0.00 0.00 0.00 94 1009.3
20260505123705 67 78 2.0 2.0 0.00 0.00 0.00 94 1009.2
20260505123603 67 65 2.0 2.0 0.00 0.00 0.00 94 1009.4
20260505123505 67 59 1.0 4.0 0.00 0.00 0.00 94 1009.2
20260505123405 67 54 0.0 4.0 0.00 0.00 0.00 94 1009.1
20260505123303 67 53 2.0 4.0 0.00 0.00 0.00 94 1009.2
20260505123203 67 46 1.0 4.0 0.00 0.00 0.00 94 1009.0
20260505123105 67 40 1.0 4.0 0.00 0.00 0.00 94 1009.1
20260505123003 67 39 2.0 4.0 0.00 0.00 0.00 94 1008.9
20260505122903 67 45 1.0 4.0 0.00 0.00 0.00 94 1009.1
20260505122704 67 49 2.0 4.0 0.00 0.00 0.00 94 1009.0
20260505122603 67 59 1.0 4.0 0.00 0.00 0.00 94 1008.8
20260505122503 67 60 2.0 4.0 0.00 0.00 0.00 94 1009.0
20260505122403 67 63 2.0 4.0 0.00 0.00 0.00 94 1009.1
20260505122306 67 71 2.0 2.0 0.00 0.00 0.00 95 1008.9
20260505122209 67 64 1.0 2.0 0.00 0.00 0.00 95 1009.0
20260505122105 67 73 1.0 4.0 0.00 0.00 0.00 95 1008.8
20260505121904 67 73 1.0 4.0 0.00 0.00 0.00 95 1009.0
20260505121804 67 60 0.0 4.0 0.00 0.00 0.00 95 1008.9
20260505121707 67 55 0.0 4.0 0.00 0.00 0.00 95 1008.8
20260505121605 67 44 1.0 4.0 0.00 0.00 0.00 95 1009.1
20260505121504 67 35 2.0 4.0 0.00 0.00 0.00 95 1009.0
20260505121403 67 32 1.0 4.0 0.00 0.00 0.00 95 1009.0
20260505121305 67 38 1.0 4.0 0.00 0.00 0.00 95 1009.0
20260505121205 67 30 0.0 4.0 0.00 0.00 0.00 95 1009.2
20260505121103 66 28 2.0 4.0 0.00 0.00 0.00 95 1009.1
20260505121003 66 34 0.0 4.0 0.00 0.00 0.00 95 1008.9
20260505120903 66 35 2.0 4.0 0.00 0.00 0.00 95 1009.0
20260505120805 66 39 1.0 4.0 0.00 0.00 0.00 95 1009.1
20260505120705 66 44 1.0 4.0 0.00 0.00 0.00 95 1009.0
20260505120603 66 45 2.0 4.0 0.00 0.00 0.00 95 1009.0
20260505120503 66 49 2.0 4.0 0.00 0.00 0.00 95 1008.9
20260505120403 66 46 1.0 4.0 0.00 0.00 0.00 95 1008.8
20260505120315 66 38 1.0 4.0 0.00 0.00 0.00 95 1009.0
20260505120207 66 34 2.0 4.0 0.00 0.00 0.00 95 1008.8
20260505115919 66 28 1.0 2.0 0.00 0.00 0.00 95 1008.9
20260505115904 66 30 1.0 4.0 0.00 0.00 0.00 95 1008.9
20260505115803 66 50 0.0 4.0 0.00 0.00 0.00 95 1009.0
20260505115603 66 52 0.0 4.0 0.00 0.00 0.00 95 1008.8
20260505115505 66 59 0.0 4.0 0.00 0.00 0.00 95 1008.8
20260505115403 66 60 1.0 4.0 0.00 0.00 0.00 95 1008.7
20260505115305 66 65 2.0 4.0 0.00 0.00 0.00 95 1008.7
20260505115222 66 68 1.0 2.0 0.00 0.00 0.00 95 1009.1
20260505115103 66 74 2.0 2.0 0.00 0.00 0.00 95 1008.8
20260505115003 66 68 2.0 2.0 0.00 0.00 0.00 95 1008.8
20260505114915 66 66 0.0 2.0 0.00 0.00 0.00 95 1008.7
20260505114805 66 60 1.0 2.0 0.00 0.00 0.00 95 1009.0
20260505114603 66 45 0.0 2.0 0.00 0.00 0.00 95 1008.8
20260505114503 66 40 1.0 2.0 0.00 0.00 0.00 95 1008.8
20260505114403 66 22 1.0 2.0 0.00 0.00 0.00 95 1008.6
20260505114303 66 0 0.0 0.0 0.00 0.00 0.00 95 1008.9
20260505114205 66 0 0.0 0.0 0.00 0.00 0.00 95 1008.8
20260505114103 66 49 0.0 2.0 0.00 0.00 0.00 95 1008.9
20260505114008 66 53 0.0 2.0 0.00 0.00 0.00 95 1009.0
20260505113904 66 53 0.0 2.0 0.00 0.00 0.00 95 1008.8
20260505113704 66 33 1.0 2.0 0.00 0.00 0.00 95 1008.9
20260505113604 66 8 2.0 2.0 0.00 0.00 0.00 95 1008.7
20260505113503 66 354 0.0 2.0 0.00 0.00 0.00 95 1008.6
20260505113403 66 3 0.0 2.0 0.00 0.00 0.00 95 1008.7
20260505113303 66 12 0.0 2.0 0.00 0.00 0.00 95 1008.9
20260505113205 66 19 0.0 2.0 0.00 0.00 0.00 95 1009.0
20260505113120 66 27 0.0 2.0 0.00 0.00 0.00 95 1008.7
20260505113103 66 31 2.0 2.0 0.00 0.00 0.00 95 1008.6
20260505112805 66 38 0.0 4.0 0.00 0.00 0.00 95 1008.7
20260505112705 66 39 1.0 4.0 0.00 0.00 0.00 95 1008.8
20260505112603 66 40 1.0 4.0 0.00 0.00 0.00 95 1008.6
20260505112510 66 43 1.0 4.0 0.00 0.00 0.00 95 1008.5
20260505112403 66 48 1.0 2.0 0.00 0.00 0.00 95 1008.6
20260505112305 66 57 1.0 2.0 0.00 0.00 0.00 95 1008.5
20260505112205 66 64 1.0 2.0 0.00 0.00 0.00 95 1008.8
20260505112104 66 73 1.0 2.0 0.00 0.00 0.00 95 1008.5
20260505112004 66 72 0.0 2.0 0.00 0.00 0.00 95 1008.6
20260505111905 66 78 0.0 2.0 0.00 0.00 0.00 95 1008.5
20260505111804 66 75 1.0 2.0 0.00 0.00 0.00 95 1008.4
20260505111704 66 66 1.0 2.0 0.00 0.00 0.00 95 1008.4
20260505111505 66 63 0.0 4.0 0.00 0.00 0.00 95 1008.2
20260505111405 66 62 0.0 4.0 0.00 0.00 0.00 95 1008.2
20260505111303 66 70 0.0 4.0 0.00 0.00 0.00 95 1008.4
20260505111205 66 77 1.0 4.0 0.00 0.00 0.00 95 1008.3
20260505111103 66 87 2.0 4.0 0.00 0.00 0.00 95 1008.4
20260505111007 66 83 2.0 2.0 0.00 0.00 0.00 95 1008.2
20260505110903 66 81 0.0 2.0 0.00 0.00 0.00 95 1008.5
20260505110809 66 62 1.0 2.0 0.00 0.00 0.00 95 1008.3
20260505110716 66 69 0.0 4.0 0.00 0.00 0.00 95 1008.3
20260505110704 66 65 1.0 4.0 0.00 0.00 0.00 95 1008.6
20260505110605 66 54 1.0 4.0 0.00 0.00 0.00 95 1008.4
20260505110405 66 57 0.0 4.0 0.00 0.00 0.00 95 1008.4
20260505110303 66 63 1.0 4.0 0.00 0.00 0.00 95 1008.2
20260505110203 66 55 1.0 4.0 0.00 0.00 0.00 95 1008.4
20260505110117 66 65 0.0 4.0 0.00 0.00 0.00 95 1008.3
20260505110105 66 67 0.0 4.0 0.00 0.00 0.00 95 1008.3
20260505102217 66 34 0.0 2.0 0.00 0.00 0.00 95 1008.3
20260505102104 66 44 1.0 2.0 0.00 0.00 0.00 95 1008.1
20260505101903 66 69 1.0 2.0 0.00 0.00 0.00 95 1008.2
20260505101811 66 77 0.0 2.0 0.00 0.00 0.00 95 1008.0
20260505101715 66 69 0.0 4.0 0.00 0.00 0.00 95 1008.0
20260505101704 66 62 0.0 4.0 0.00 0.00 0.00 95 1008.0
20260505101603 66 37 1.0 4.0 0.00 0.00 0.00 94 1007.9
20260505101405 66 1 1.0 4.0 0.00 0.00 0.00 94 1008.0
20260505101303 66 354 1.0 4.0 0.00 0.00 0.00 94 1008.1
20260505101117 66 6 2.0 4.0 0.00 0.00 0.00 94 1008.1
20260505101103 66 10 2.0 4.0 0.00 0.00 0.00 94 1008.2
20260505101003 66 37 2.0 4.0 0.00 0.00 0.00 94 1008.2
20260505100803 65 67 0.0 2.0 0.00 0.00 0.00 94 1007.7
20260505100703 66 67 0.0 2.0 0.00 0.00 0.00 94 1007.4
20260505100603 66 67 1.0 2.0 0.00 0.00 0.00 94 1007.4
20260505100503 66 67 0.0 2.0 0.00 0.00 0.00 94 1007.6
20260505100405 66 67 1.0 2.0 0.00 0.00 0.00 94 1007.7
20260505100303 66 67 0.0 2.0 0.00 0.00 0.00 94 1007.6
20260505100205 66 67 0.0 2.0 0.00 0.00 0.00 94 1007.5
20260505100105 66 67 0.0 2.0 0.00 0.00 0.00 94 1007.6
20260505100004 66 67 0.0 2.0 0.00 0.00 0.00 94 1007.6
20260505095905 65 67 0.0 2.0 0.00 0.00 0.00 94 1007.7
20260505095804 66 0 0.0 0.0 0.00 0.00 0.00 94 1007.7
20260505095703 66 0 0.0 0.0 0.00 0.00 0.00 94 1007.7
20260505095603 66 0 0.0 0.0 0.00 0.00 0.00 94 1007.8
20260505095515 65 0 0.0 0.0 0.00 0.00 0.00 94 1007.9
20260505095503 65 0 0.0 0.0 0.00 0.00 0.00 94 1008.1
20260505095403 65 0 0.0 0.0 0.00 0.00 0.00 94 1007.7
20260505095203 65 0 0.0 0.0 0.00 0.00 0.00 94 1007.7
20260505095103 65 0 0.0 0.0 0.00 0.00 0.00 94 1007.9
20260505095003 65 0 0.0 0.0 0.00 0.00 0.00 94 1007.7
20260505094903 65 0 0.0 0.0 0.00 0.00 0.00 94 1007.8
20260505094804 65 0 0.0 0.0 0.00 0.00 0.00 94 1007.7
20260505094704 65 0 0.0 0.0 0.00 0.00 0.00 94 1007.9
20260505094504 65 0 0.0 0.0 0.00 0.00 0.00 94 1007.7
20260505094404 65 0 0.0 0.0 0.00 0.00 0.00 94 1007.6
20260505094304 65 0 0.0 0.0 0.00 0.00 0.00 94 1007.8
20260505094209 65 0 0.0 0.0 0.00 0.00 0.00 94 1007.6
20260505094105 65 0 0.0 0.0 0.00 0.00 0.00 94 1007.4
20260505094004 65 0 0.0 0.0 0.00 0.00 0.00 94 1007.7
20260505093705 65 45 0.0 2.0 0.00 0.00 0.00 94 1007.9
20260505093604 65 56 0.0 2.0 0.00 0.00 0.00 94 1007.8
20260505093504 65 60 0.0 2.0 0.00 0.00 0.00 94 1007.6
20260505093404 65 62 0.0 2.0 0.00 0.00 0.00 94 1007.7
20260505093303 65 56 0.0 2.0 0.00 0.00 0.00 94 1007.7
20260505093217 65 50 0.0 2.0 0.00 0.00 0.00 94 1007.7
20260505093207 65 49 0.0 2.0 0.00 0.00 0.00 94 1007.7
20260505093116 65 46 0.0 2.0 0.00 0.00 0.00 94 1007.6
20260505093105 65 42 1.0 2.0 0.00 0.00 0.00 94 1007.6
20260505092817 65 29 0.0 2.0 0.00 0.00 0.00 94 1007.4
20260505092804 65 30 0.0 2.0 0.00 0.00 0.00 94 1007.4
20260505092706 65 33 0.0 2.0 0.00 0.00 0.00 94 1007.7
20260505092614 65 33 1.0 2.0 0.00 0.00 0.00 94 1007.4
20260505092503 65 45 2.0 2.0 0.00 0.00 0.00 94 1007.7
20260505092305 65 0 0.0 0.0 0.00 0.00 0.00 94 1007.6
20260505092204 65 0 0.0 0.0 0.00 0.00 0.00 94 1007.6
20260505092103 65 0 0.0 0.0 0.00 0.00 0.00 94 1007.6
20260505092004 65 0 0.0 0.0 0.00 0.00 0.00 94 1007.7
20260505091904 65 0 0.0 0.0 0.00 0.00 0.00 94 1007.6
20260505091803 65 0 0.0 0.0 0.00 0.00 0.00 94 1007.5
20260505091704 65 45 0.0 2.0 0.00 0.00 0.00 94 1007.6
20260505091603 65 45 0.0 2.0 0.00 0.00 0.00 94 1007.5
20260505091503 65 42 0.0 2.0 0.00 0.00 0.00 94 1007.6
20260505091405 65 38 0.0 2.0 0.00 0.00 0.00 94 1007.7
20260505091303 65 43 0.0 2.0 0.00 0.00 0.00 94 1007.5
20260505091203 65 45 0.0 2.0 0.00 0.00 0.00 94 1007.6
20260505091103 65 43 0.0 2.0 0.00 0.00 0.00 94 1007.6
20260505091003 65 38 0.0 2.0 0.00 0.00 0.00 94 1007.7
20260505090903 65 29 1.0 2.0 0.00 0.00 0.00 94 1007.4
20260505090717 65 1 2.0 2.0 0.00 0.00 0.00 94 1007.5
20260505090703 65 353 1.0 2.0 0.00 0.00 0.00 94 1007.4
20260505090605 65 332 2.0 2.0 0.00 0.00 0.00 94 1007.8
20260505090514 65 312 1.0 2.0 0.00 0.00 0.00 94 1007.7
20260505090404 65 298 1.0 2.0 0.00 0.00 0.00 94 1007.4
20260505090205 65 292 1.0 2.0 0.00 0.00 0.00 94 1007.5
20260505090005 65 292 0.0 2.0 0.00 0.00 0.00 93 1007.6
20260505085903 65 292 0.0 2.0 0.00 0.00 0.00 93 1007.5
20260505085803 65 292 1.0 2.0 0.00 0.00 0.00 93 1007.3
20260505085605 65 0 0.0 0.0 0.00 0.00 0.00 93 1007.3
20260505085503 65 0 0.0 0.0 0.00 0.00 0.00 93 1007.4
20260505085403 65 45 0.0 2.0 0.00 0.00 0.00 93 1007.5
20260505085305 65 45 0.0 2.0 0.00 0.00 0.00 93 1007.3
20260505085204 65 45 0.0 2.0 0.00 0.00 0.00 93 1007.4
20260505085115 65 45 0.0 2.0 0.00 0.00 0.00 93 1007.2
20260505084805 65 38 0.0 2.0 0.00 0.00 0.00 93 1007.0
20260505084704 65 32 0.0 2.0 0.00 0.00 0.00 93 1007.2
20260505084605 65 30 0.0 2.0 0.00 0.00 0.00 93 1007.4
20260505084504 65 33 0.0 2.0 0.00 0.00 0.00 93 1007.1
20260505084303 65 34 1.0 2.0 0.00 0.00 0.00 93 1006.9
20260505084204 65 34 1.0 2.0 0.00 0.00 0.00 93 1007.2
20260505084104 65 36 0.0 2.0 0.00 0.00 0.00 93 1007.0
20260505083905 65 37 1.0 2.0 0.00 0.00 0.00 93 1006.9
20260505083803 65 43 1.0 2.0 0.00 0.00 0.00 93 1007.3
20260505083705 65 52 0.0 2.0 0.00 0.00 0.00 93 1006.9
20260505083605 65 56 0.0 2.0 0.00 0.00 0.00 93 1007.2
20260505083504 65 61 1.0 2.0 0.00 0.00 0.00 93 1007.1
20260505083403 65 60 1.0 2.0 0.00 0.00 0.00 93 1007.1
20260505083303 65 61 1.0 2.0 0.00 0.00 0.00 93 1007.1
20260505083205 65 44 1.0 2.0 0.00 0.00 0.00 93 1007.3
20260505083103 65 43 0.0 4.0 0.00 0.00 0.00 93 1007.1
20260505083004 65 44 0.0 4.0 0.00 0.00 0.00 93 1007.1
20260505082904 65 42 0.0 4.0 0.00 0.00 0.00 93 1007.1
20260505082817 65 41 1.0 4.0 0.00 0.00 0.00 93 1007.1
20260505082704 65 43 2.0 4.0 0.00 0.00 0.00 93 1007.3
20260505082614 65 37 0.0 2.0 0.00 0.00 0.00 93 1007.1
20260505082503 65 28 1.0 2.0 0.00 0.00 0.00 93 1007.0
20260505082417 65 29 0.0 2.0 0.00 0.00 0.00 93 1007.2
20260505082305 65 38 0.0 2.0 0.00 0.00 0.00 93 1007.2
20260505082103 65 53 2.0 2.0 0.00 0.00 0.00 92 1007.4
20260505082005 65 64 2.0 2.0 0.00 0.00 0.00 92 1007.3
20260505081903 65 67 0.0 2.0 0.00 0.00 0.00 92 1007.2
20260505081803 65 67 0.0 2.0 0.00 0.00 0.00 92 1007.3
20260505081706 65 55 1.0 2.0 0.00 0.00 0.00 92 1007.1
20260505081603 65 33 1.0 2.0 0.00 0.00 0.00 92 1007.0
20260505081504 65 7 0.0 2.0 0.00 0.00 0.00 92 1007.3
20260505081403 65 5 0.0 2.0 0.00 0.00 0.00 92 1007.1
20260505081303 65 5 0.0 2.0 0.00 0.00 0.00 92 1007.1
20260505081204 65 4 0.0 2.0 0.00 0.00 0.00 92 1007.4
20260505080904 65 360 0.0 2.0 0.00 0.00 0.00 92 1007.3
20260505080803 65 360 0.0 2.0 0.00 0.00 0.00 92 1007.4
20260505080703 65 360 0.0 4.0 0.00 0.00 0.00 92 1007.4
20260505080605 65 358 0.0 4.0 0.00 0.00 0.00 92 1007.2
20260505080515 65 356 0.0 4.0 0.00 0.00 0.00 92 1007.3
20260505080504 65 357 0.0 4.0 0.00 0.00 0.00 92 1007.3
20260505080204 65 11 2.0 4.0 0.00 0.00 0.00 92 1007.4
20260505080114 65 29 2.0 2.0 0.00 0.00 0.00 92 1007.6
20260505080103 65 35 2.0 2.0 0.00 0.00 0.00 92 1007.6
20260505080006 65 61 1.0 2.0 0.00 0.00 0.00 92 1007.4
20260505075916 65 67 0.0 2.0 0.00 0.00 0.00 92 1007.1
20260505075804 65 64 0.0 2.0 0.00 0.00 0.00 92 1007.3
20260505075603 65 45 0.0 2.0 0.00 0.00 0.00 92 1007.3
20260505075516 65 45 0.0 2.0 0.00 0.00 0.00 92 1007.4
20260505075504 65 45 0.0 2.0 0.00 0.00 0.00 92 1007.5
20260505075404 65 45 0.0 2.0 0.00 0.00 0.00 92 1007.3
20260505075204 65 45 1.0 2.0 0.00 0.00 0.00 92 1007.4
20260505075105 65 33 1.0 2.0 0.00 0.00 0.00 92 1007.1
20260505075003 65 22 0.0 2.0 0.00 0.00 0.00 92 1007.1
20260505074904 65 28 0.0 2.0 0.00 0.00 0.00 92 1007.1
20260505074804 65 24 0.0 2.0 0.00 0.00 0.00 92 1007.1
20260505074704 65 24 0.0 2.0 0.00 0.00 0.00 92 1007.3
20260505074603 65 25 0.0 2.0 0.00 0.00 0.00 92 1007.2
20260505074504 65 25 1.0 2.0 0.00 0.00 0.00 92 1007.4
20260505074403 65 14 1.0 2.0 0.00 0.00 0.00 92 1007.2
20260505074319 65 17 1.0 2.0 0.00 0.00 0.00 92 1007.6
20260505074203 65 9 0.0 2.0 0.00 0.00 0.00 92 1007.2
20260505074015 65 6 0.0 2.0 0.00 0.00 0.00 92 1007.3
20260505074003 65 5 0.0 2.0 0.00 0.00 0.00 92 1007.3
20260505073913 65 4 0.0 2.0 0.00 0.00 0.00 92 1007.3
20260505073903 65 4 1.0 2.0 0.00 0.00 0.00 92 1007.2
20260505073603 65 6 0.0 2.0 0.00 0.00 0.00 92 1007.2
20260505073504 65 10 1.0 2.0 0.00 0.00 0.00 91 1007.5
20260505073404 65 13 1.0 2.0 0.00 0.00 0.00 91 1007.4
20260505073315 65 16 2.0 2.0 0.00 0.00 0.00 91 1007.3
20260505073303 65 18 2.0 2.0 0.00 0.00 0.00 91 1007.3
20260505073203 65 22 1.0 2.0 0.00 0.00 0.00 91 1007.3
20260505073117 65 22 1.0 2.0 0.00 0.00 0.00 91 1007.2
20260505072914 65 22 0.0 2.0 0.00 0.00 0.00 91 1007.3
20260505072803 65 22 0.0 2.0 0.00 0.00 0.00 91 1007.2
20260505072604 65 22 0.0 2.0 0.00 0.00 0.00 91 1007.3
20260505072503 65 22 0.0 2.0 0.00 0.00 0.00 91 1007.2
20260505072403 65 22 0.0 2.0 0.00 0.00 0.00 91 1007.1
20260505072305 65 22 0.0 2.0 0.00 0.00 0.00 91 1006.9
20260505072203 65 22 0.0 2.0 0.00 0.00 0.00 91 1007.3
20260505072103 65 22 0.0 2.0 0.00 0.00 0.00 91 1007.1
20260505072005 65 22 0.0 2.0 0.00 0.00 0.00 91 1007.4
20260505071903 65 22 0.0 2.0 0.00 0.00 0.00 91 1007.3
20260505071803 65 22 0.0 2.0 0.00 0.00 0.00 91 1007.5
20260505071704 65 22 0.0 2.0 0.00 0.00 0.00 91 1007.6
20260505071603 65 22 0.0 2.0 0.00 0.00 0.00 91 1007.2
20260505071503 65 22 0.0 2.0 0.00 0.00 0.00 91 1007.1
20260505071413 65 22 0.0 2.0 0.00 0.00 0.00 91 1007.4
20260505071303 65 22 0.0 2.0 0.00 0.00 0.00 91 1007.3
20260505071114 65 25 0.0 4.0 0.00 0.00 0.00 91 1007.2
20260505071104 65 26 0.0 4.0 0.00 0.00 0.00 91 1007.1
20260505071004 65 28 1.0 4.0 0.00 0.00 0.00 91 1007.6
20260505070803 65 31 1.0 4.0 0.00 0.00 0.00 91 1007.3
20260505070713 65 38 2.0 4.0 0.00 0.00 0.00 91 1007.4
20260505070704 65 45 1.0 2.0 0.00 0.00 0.00 91 1007.3
20260505070604 65 45 0.0 2.0 0.00 0.00 0.00 91 1007.4
20260505070404 65 0 0.0 0.0 0.00 0.00 0.00 91 1007.4
20260505070305 65 0 0.0 0.0 0.00 0.00 0.00 91 1007.3
20260505070204 65 67 0.0 2.0 0.00 0.00 0.00 91 1007.2
20260505070104 65 67 0.0 2.0 0.00 0.00 0.00 91 1007.1
20260505070004 65 67 0.0 2.0 0.00 0.00 0.00 91 1007.3
20260505065904 65 67 0.0 2.0 0.00 0.00 0.00 91 1007.0
20260505065805 65 67 0.0 2.0 0.00 0.00 0.00 91 1007.4
20260505065704 65 67 1.0 2.0 0.00 0.00 0.00 91 1007.3
20260505065603 65 67 1.0 2.0 0.00 0.00 0.00 91 1007.2
20260505065505 64 0 0.0 0.0 0.00 0.00 0.00 91 1007.4
20260505065404 65 0 0.0 0.0 0.00 0.00 0.00 90 1007.4
20260505065304 64 0 0.0 0.0 0.00 0.00 0.00 90 1007.4
20260505065203 64 67 0.0 2.0 0.00 0.00 0.00 90 1007.4
20260505065004 64 67 0.0 2.0 0.00 0.00 0.00 90 1007.3
20260505064905 64 67 0.0 2.0 0.00 0.00 0.00 90 1007.3
20260505064804 64 67 0.0 2.0 0.00 0.00 0.00 90 1007.6
20260505064715 64 67 0.0 2.0 0.00 0.00 0.00 90 1007.4
20260505064704 64 67 0.0 2.0 0.00 0.00 0.00 90 1007.5
20260505064604 64 64 0.0 2.0 0.00 0.00 0.00 90 1007.5
20260505064315 65 54 0.0 2.0 0.00 0.00 0.00 90 1007.6
20260505064303 65 52 0.0 2.0 0.00 0.00 0.00 90 1007.4
20260505064204 64 45 0.0 2.0 0.00 0.00 0.00 90 1007.6
20260505064117 65 45 0.0 2.0 0.00 0.00 0.00 90 1007.5
20260505063805 64 0 0.0 0.0 0.00 0.00 0.00 90 1007.5
20260505063704 64 0 0.0 0.0 0.00 0.00 0.00 90 1007.6
20260505063605 64 0 0.0 0.0 0.00 0.00 0.00 90 1007.6
20260505063503 64 0 0.0 0.0 0.00 0.00 0.00 90 1007.6
20260505063403 64 0 0.0 0.0 0.00 0.00 0.00 90 1007.4
20260505063303 64 0 0.0 0.0 0.00 0.00 0.00 90 1007.5
20260505063203 64 67 0.0 2.0 0.00 0.00 0.00 90 1007.6
20260505063103 64 64 0.0 2.0 0.00 0.00 0.00 90 1007.4
20260505062903 64 54 0.0 2.0 0.00 0.00 0.00 90 1007.6
20260505062803 65 49 0.0 2.0 0.00 0.00 0.00 90 1007.3
20260505062704 65 34 1.0 4.0 0.00 0.00 0.00 90 1007.4
20260505062605 65 10 0.0 4.0 0.00 0.00 0.00 90 1007.3
20260505062503 65 3 2.0 4.0 0.00 0.00 0.00 90 1007.2
20260505062418 65 12 1.0 4.0 0.00 0.00 0.00 90 1007.3
20260505062403 65 20 1.0 4.0 0.00 0.00 0.00 90 1007.3
20260505062304 65 31 0.0 4.0 0.00 0.00 0.00 90 1007.4
20260505062103 65 45 1.0 4.0 0.00 0.00 0.00 90 1007.3
20260505062004 65 48 2.0 4.0 0.00 0.00 0.00 90 1007.3
20260505061904 65 47 2.0 2.0 0.00 0.00 0.00 89 1007.3
20260505061805 65 43 1.0 2.0 0.00 0.00 0.00 89 1007.2
20260505061703 65 41 1.0 2.0 0.00 0.00 0.00 89 1007.1
20260505061605 65 45 0.0 4.0 0.00 0.00 0.00 89 1007.3
20260505061507 65 52 1.0 4.0 0.00 0.00 0.00 89 1007.1
20260505061404 65 45 2.0 4.0 0.00 0.00 0.00 89 1007.3
20260505061305 65 43 0.0 4.0 0.00 0.00 0.00 89 1007.3
20260505061104 65 43 2.0 4.0 0.00 0.00 0.00 89 1007.4
20260505061004 64 33 1.0 2.0 0.00 0.00 0.00 89 1007.4
20260505060903 64 32 1.0 2.0 0.00 0.00 0.00 89 1007.4
20260505060804 64 32 0.0 2.0 0.00 0.00 0.00 89 1007.2
20260505060714 65 23 1.0 2.0 0.00 0.00 0.00 89 1007.4
20260505060703 64 21 1.0 2.0 0.00 0.00 0.00 89 1007.2
20260505060516 64 7 1.0 4.0 0.00 0.00 0.00 89 1007.6
20260505060404 64 1 1.0 4.0 0.00 0.00 0.00 89 1007.6
20260505060205 64 11 2.0 4.0 0.00 0.00 0.00 89 1007.5
20260505060116 65 15 2.0 4.0 0.00 0.00 0.00 89 1007.5
20260505060105 65 13 2.0 4.0 0.00 0.00 0.00 89 1007.5
20260505060005 65 15 2.0 4.0 0.00 0.00 0.00 89 1007.3
20260505055803 64 29 1.0 4.0 0.00 0.00 0.00 89 1007.7
20260505055715 64 29 2.0 4.0 0.00 0.00 0.00 89 1007.4
20260505055703 64 28 2.0 4.0 0.00 0.00 0.00 89 1007.4
20260505055619 65 28 2.0 4.0 0.00 0.00 0.00 89 1007.6
20260505055603 65 29 2.0 4.0 0.00 0.00 0.00 89 1007.6
20260505055304 64 10 2.0 6.0 0.00 0.00 0.00 89 1007.8
20260505055206 64 4 2.0 6.0 0.00 0.00 0.00 89 1007.7
20260505055104 64 356 2.0 6.0 0.00 0.00 0.00 89 1007.7
20260505055003 64 359 2.0 6.0 0.00 0.00 0.00 89 1007.9
20260505054905 64 358 2.0 6.0 0.00 0.00 0.00 89 1007.7
20260505054817 64 359 4.0 6.0 0.00 0.00 0.00 88 1007.6
20260505054703 64 5 2.0 4.0 0.00 0.00 0.00 88 1007.6
20260505054503 64 15 2.0 4.0 0.00 0.00 0.00 88 1007.5
20260505054417 64 14 2.0 4.0 0.00 0.00 0.00 88 1007.6
20260505054405 64 15 2.0 4.0 0.00 0.00 0.00 88 1007.6
20260505054305 64 11 2.0 4.0 0.00 0.00 0.00 88 1007.6
20260505054104 64 5 1.0 4.0 0.00 0.00 0.00 88 1007.7
20260505054016 64 1 2.0 4.0 0.00 0.00 0.00 88 1007.9
20260505054006 64 359 2.0 4.0 0.00 0.00 0.00 88 1007.9
20260505053914 64 3 2.0 4.0 0.00 0.00 0.00 88 1007.9
20260505053903 64 3 2.0 4.0 0.00 0.00 0.00 88 1007.6
20260505053813 64 3 1.0 4.0 0.00 0.00 0.00 88 1007.7
20260505053506 64 357 2.0 4.0 0.00 0.00 0.00 88 1007.7
20260505053403 64 348 2.0 4.0 0.00 0.00 0.00 88 1007.7
20260505053303 64 350 2.0 4.0 0.00 0.00 0.00 88 1007.9
20260505053105 64 357 2.0 4.0 0.00 0.00 0.00 88 1007.7
20260505053005 64 3 2.0 4.0 0.00 0.00 0.00 88 1007.5
20260505052906 64 16 1.0 4.0 0.00 0.00 0.00 88 1007.6
20260505052803 64 14 2.0 4.0 0.00 0.00 0.00 88 1007.6
20260505052604 64 16 2.0 4.0 0.00 0.00 0.00 88 1007.5
20260505052504 64 15 2.0 4.0 0.00 0.00 0.00 87 1007.6
20260505052404 64 17 1.0 4.0 0.00 0.00 0.00 87 1007.5
20260505052304 64 25 0.0 2.0 0.00 0.00 0.00 87 1007.7
20260505052204 64 25 1.0 4.0 0.00 0.00 0.00 87 1007.5
20260505052104 64 12 2.0 4.0 0.00 0.00 0.00 87 1007.7
20260505052004 64 7 2.0 4.0 0.00 0.00 0.00 87 1007.7
20260505051905 64 4 1.0 4.0 0.00 0.00 0.00 87 1007.5
20260505051805 64 3 2.0 4.0 0.00 0.00 0.00 87 1007.7
20260505051705 64 352 2.0 4.0 0.00 0.00 0.00 87 1007.5
20260505051503 64 8 1.0 4.0 0.00 0.00 0.00 87 1007.5
20260505051408 64 15 2.0 4.0 0.00 0.00 0.00 87 1007.6
20260505051306 64 19 1.0 4.0 0.00 0.00 0.00 87 1007.4
20260505051204 64 35 2.0 4.0 0.00 0.00 0.00 87 1007.5
20260505051104 64 38 1.0 4.0 0.00 0.00 0.00 87 1007.6
20260505051003 64 43 2.0 4.0 0.00 0.00 0.00 87 1007.5
20260505050903 64 39 2.0 4.0 0.00 0.00 0.00 87 1007.6
20260505050804 64 41 2.0 4.0 0.00 0.00 0.00 87 1007.7
20260505050715 64 24 3.0 4.0 0.00 0.00 0.00 86 1007.6
20260505050703 64 19 1.0 4.0 0.00 0.00 0.00 86 1007.6
20260505050604 64 20 2.0 4.0 0.00 0.00 0.00 86 1007.6
20260505050403 64 4 2.0 4.0 0.00 0.00 0.00 86 1007.6
20260505050307 64 358 1.0 4.0 0.00 0.00 0.00 86 1007.6
20260505050205 64 355 2.0 4.0 0.00 0.00 0.00 86 1007.7
20260505050105 64 355 2.0 4.0 0.00 0.00 0.00 86 1007.7
20260505041705 63 22 0.0 2.0 0.00 0.00 0.00 84 1008.1
20260505041404 63 0 0.0 2.0 0.00 0.00 0.00 84 1008.1
20260505041304 63 0 0.0 2.0 0.00 0.00 0.00 84 1007.8
20260505041205 63 0 0.0 2.0 0.00 0.00 0.00 84 1007.9
20260505041003 63 22 1.0 2.0 0.00 0.00 0.00 84 1007.9
20260505040903 63 22 0.0 2.0 0.00 0.00 0.00 83 1008.1
20260505040804 63 22 0.0 2.0 0.00 0.00 0.00 83 1007.9
20260505040708 63 29 0.0 2.0 0.00 0.00 0.00 83 1008.0
20260505040604 63 41 1.0 2.0 0.00 0.00 0.00 83 1008.0
20260505040505 63 46 0.0 2.0 0.00 0.00 0.00 83 1008.2
20260505040403 63 53 1.0 2.0 0.00 0.00 0.00 83 1007.8
20260505040303 63 55 1.0 2.0 0.00 0.00 0.00 83 1007.9
20260505040207 63 54 1.0 2.0 0.00 0.00 0.00 83 1008.0
20260505040104 63 42 1.0 2.0 0.00 0.00 0.00 83 1008.1
20260505040017 63 36 1.0 2.0 0.00 0.00 0.00 83 1008.0
20260505040004 63 34 1.0 2.0 0.00 0.00 0.00 83 1008.0
20260505035903 63 25 2.0 2.0 0.00 0.00 0.00 83 1007.8
20260505035713 63 23 1.0 2.0 0.00 0.00 0.00 83 1007.9
20260505035705 63 24 1.0 2.0 0.00 0.00 0.00 83 1007.9
20260505035604 63 29 1.0 2.0 0.00 0.00 0.00 83 1007.8
20260505035515 63 32 1.0 2.0 0.00 0.00 0.00 83 1007.9
20260505035404 63 38 1.0 2.0 0.00 0.00 0.00 83 1007.7
20260505035204 63 42 0.0 4.0 0.00 0.00 0.00 83 1007.7
20260505035104 63 39 0.0 4.0 0.00 0.00 0.00 83 1007.7
20260505035004 63 34 1.0 4.0 0.00 0.00 0.00 83 1007.9
20260505034905 63 37 0.0 4.0 0.00 0.00 0.00 83 1007.7
20260505034804 63 36 2.0 4.0 0.00 0.00 0.00 83 1007.9
20260505034704 63 34 0.0 4.0 0.00 0.00 0.00 83 1007.9
20260505034603 63 37 2.0 4.0 0.00 0.00 0.00 83 1007.7
20260505034503 63 43 1.0 2.0 0.00 0.00 0.00 83 1007.7
20260505034405 63 28 2.0 2.0 0.00 0.00 0.00 83 1007.8
20260505034305 63 22 0.0 2.0 0.00 0.00 0.00 83 1007.7
20260505034203 63 22 0.0 2.0 0.00 0.00 0.00 83 1007.8
20260505034007 63 35 0.0 4.0 0.00 0.00 0.00 83 1007.6
20260505033905 63 36 1.0 4.0 0.00 0.00 0.00 83 1007.7
20260505033804 63 36 0.0 4.0 0.00 0.00 0.00 83 1007.6
20260505033704 63 35 1.0 4.0 0.00 0.00 0.00 83 1007.7
20260505033607 63 34 2.0 4.0 0.00 0.00 0.00 83 1007.6
20260505033505 63 31 2.0 4.0 0.00 0.00 0.00 83 1007.8
20260505033404 63 33 2.0 2.0 0.00 0.00 0.00 83 1007.6
20260505033304 63 36 1.0 2.0 0.00 0.00 0.00 83 1007.6
20260505033203 63 40 1.0 2.0 0.00 0.00 0.00 83 1007.8
20260505033104 63 49 1.0 4.0 0.00 0.00 0.00 82 1007.6
20260505033003 63 43 1.0 4.0 0.00 0.00 0.00 82 1007.5
20260505032905 63 37 2.0 4.0 0.00 0.00 0.00 82 1007.7
20260505032803 63 25 1.0 4.0 0.00 0.00 0.00 82 1007.5
20260505032703 63 18 1.0 4.0 0.00 0.00 0.00 82 1007.7
20260505032604 63 11 1.0 4.0 0.00 0.00 0.00 82 1007.7
20260505032505 63 13 2.0 4.0 0.00 0.00 0.00 82 1007.6
20260505032403 63 14 2.0 4.0 0.00 0.00 0.00 82 1007.8
20260505032304 63 25 2.0 4.0 0.00 0.00 0.00 82 1007.8
20260505032203 63 32 1.0 4.0 0.00 0.00 0.00 82 1007.6
20260505032103 63 29 1.0 4.0 0.00 0.00 0.00 82 1007.4
20260505032004 63 27 1.0 4.0 0.00 0.00 0.00 82 1007.5
20260505031903 63 27 2.0 4.0 0.00 0.00 0.00 82 1007.7
20260505031818 63 24 2.0 6.0 0.00 0.00 0.00 82 1007.4
20260505031805 63 25 2.0 6.0 0.00 0.00 0.00 82 1007.4
20260505031519 63 49 1.0 6.0 0.00 0.00 0.00 82 1007.6
20260505031504 63 51 1.0 6.0 0.00 0.00 0.00 82 1007.6
20260505031403 63 56 2.0 6.0 0.00 0.00 0.00 82 1007.4
20260505031204 63 60 3.0 6.0 0.00 0.00 0.00 82 1007.5
20260505031105 63 60 2.0 6.0 0.00 0.00 0.00 82 1007.6
20260505031017 63 68 3.0 6.0 0.00 0.00 0.00 82 1007.4
20260505031003 63 68 2.0 4.0 0.00 0.00 0.00 82 1007.6
20260505030903 63 74 2.0 4.0 0.00 0.00 0.00 82 1007.9
20260505030703 63 82 2.0 4.0 0.00 0.00 0.00 82 1007.5
20260505030605 63 82 2.0 4.0 0.00 0.00 0.00 82 1007.5
20260505030515 63 68 2.0 4.0 0.00 0.00 0.00 82 1007.6
20260505030504 63 67 2.0 4.0 0.00 0.00 0.00 82 1007.6
20260505030404 63 45 2.0 4.0 0.00 0.00 0.00 81 1007.4
20260505030204 63 23 2.0 4.0 0.00 0.00 0.00 81 1007.5
20260505030104 63 18 1.0 4.0 0.00 0.00 0.00 81 1007.4
20260505030007 63 13 1.0 4.0 0.00 0.00 0.00 81 1007.6
20260505025904 63 13 2.0 4.0 0.00 0.00 0.00 81 1007.6
20260505025805 63 18 2.0 4.0 0.00 0.00 0.00 81 1007.7
20260505025705 63 19 1.0 4.0 0.00 0.00 0.00 81 1007.7
20260505025604 63 21 1.0 4.0 0.00 0.00 0.00 81 1007.6
20260505025504 63 28 2.0 4.0 0.00 0.00 0.00 81 1007.6
20260505025419 63 29 1.0 4.0 0.00 0.00 0.00 81 1007.6
20260505025405 63 31 2.0 4.0 0.00 0.00 0.00 81 1007.6
20260505025104 63 49 1.0 2.0 0.00 0.00 0.00 81 1007.5
20260505025004 63 47 1.0 2.0 0.00 0.00 0.00 81 1007.4
20260505024908 63 47 2.0 2.0 0.00 0.00 0.00 81 1007.7
20260505024804 63 45 2.0 2.0 0.00 0.00 0.00 81 1007.4
20260505024703 63 42 1.0 2.0 0.00 0.00 0.00 81 1007.6
20260505024604 63 43 2.0 4.0 0.00 0.00 0.00 81 1007.6
20260505024505 63 42 2.0 4.0 0.00 0.00 0.00 81 1007.7
20260505024404 63 43 2.0 4.0 0.00 0.00 0.00 81 1007.5
20260505024304 63 45 2.0 4.0 0.00 0.00 0.00 81 1007.6
20260505024203 63 48 2.0 4.0 0.00 0.00 0.00 81 1007.5
20260505024106 63 47 2.0 4.0 0.00 0.00 0.00 81 1007.4
20260505024005 63 53 1.0 4.0 0.00 0.00 0.00 81 1007.3
20260505023903 63 49 2.0 4.0 0.00 0.00 0.00 81 1007.4
20260505023804 63 36 1.0 6.0 0.00 0.00 0.00 81 1007.2
20260505023703 63 30 2.0 6.0 0.00 0.00 0.00 81 1007.2
20260505023608 63 31 1.0 6.0 0.00 0.00 0.00 81 1007.1
20260505023504 63 28 1.0 6.0 0.00 0.00 0.00 81 1007.2
20260505023403 63 30 2.0 6.0 0.00 0.00 0.00 81 1007.4
20260505023305 63 32 3.0 6.0 0.00 0.00 0.00 81 1007.3
20260505023205 63 28 2.0 6.0 0.00 0.00 0.00 81 1007.3
20260505023104 63 24 2.0 6.0 0.00 0.00 0.00 81 1007.4
20260505023003 63 22 1.0 6.0 0.00 0.00 0.00 81 1007.4
20260505022905 63 22 2.0 6.0 0.00 0.00 0.00 81 1007.1
20260505022805 63 19 2.0 4.0 0.00 0.00 0.00 81 1007.2
20260505022703 63 22 2.0 4.0 0.00 0.00 0.00 81 1007.4
20260505022615 63 31 3.0 4.0 0.00 0.00 0.00 81 1007.4
20260505022605 63 32 2.0 4.0 0.00 0.00 0.00 81 1007.2
20260505022504 63 38 2.0 4.0 0.00 0.00 0.00 81 1007.5
20260505022417 63 39 2.0 4.0 0.00 0.00 0.00 81 1007.3
20260505022304 63 42 2.0 4.0 0.00 0.00 0.00 81 1007.3
20260505022103 63 32 2.0 4.0 0.00 0.00 0.00 81 1007.3
20260505022005 63 21 1.0 4.0 0.00 0.00 0.00 81 1007.2
20260505021903 63 21 2.0 4.0 0.00 0.00 0.00 81 1007.3
20260505021803 63 31 2.0 4.0 0.00 0.00 0.00 81 1007.1
20260505021703 63 37 2.0 4.0 0.00 0.00 0.00 82 1007.3
20260505021605 63 48 3.0 4.0 0.00 0.00 0.00 82 1007.3
20260505021503 63 56 2.0 4.0 0.00 0.00 0.00 81 1007.3
20260505021406 63 54 2.0 4.0 0.00 0.00 0.00 81 1007.0
20260505021303 63 49 2.0 4.0 0.00 0.00 0.00 81 1007.2
20260505021203 63 46 1.0 4.0 0.00 0.00 0.00 81 1007.3
20260505021105 63 45 2.0 4.0 0.00 0.00 0.00 81 1007.2
20260505021004 63 49 1.0 4.0 0.00 0.00 0.00 81 1007.3
20260505020814 63 67 2.0 4.0 0.00 0.00 0.00 81 1007.5
20260505020803 63 68 2.0 4.0 0.00 0.00 0.00 81 1007.5
20260505020704 63 69 1.0 4.0 0.00 0.00 0.00 81 1007.2
20260505020404 63 51 2.0 4.0 0.00 0.00 0.00 81 1006.9
20260505020304 63 40 2.0 4.0 0.00 0.00 0.00 81 1007.2
20260505020204 63 32 2.0 4.0 0.00 0.00 0.00 81 1007.0
20260505020104 63 31 2.0 4.0 0.00 0.00 0.00 80 1007.0
20260505020018 63 29 2.0 4.0 0.00 0.00 0.00 80 1007.4
20260505020004 63 28 2.0 4.0 0.00 0.00 0.00 80 1007.4
20260505015903 63 37 2.0 4.0 0.00 0.00 0.00 80 1007.0
20260505015607 63 24 1.0 6.0 0.00 0.00 0.00 80 1007.2
20260505015503 63 29 2.0 6.0 0.00 0.00 0.00 80 1007.2
20260505015403 63 35 1.0 6.0 0.00 0.00 0.00 80 1007.3
20260505015304 63 46 2.0 6.0 0.00 0.00 0.00 80 1007.1
20260505015204 63 57 1.0 4.0 0.00 0.00 0.00 80 1007.0
20260505015103 63 48 2.0 4.0 0.00 0.00 0.00 80 1007.2
20260505015003 63 43 2.0 4.0 0.00 0.00 0.00 80 1007.2
20260505014903 63 33 2.0 4.0 0.00 0.00 0.00 80 1007.3
20260505014807 63 28 2.0 7.0 0.00 0.00 0.00 80 1007.0
20260505014704 63 13 1.0 7.0 0.00 0.00 0.00 80 1006.9
20260505014604 63 17 3.0 7.0 0.00 0.00 0.00 81 1007.0
20260505014517 63 7 2.0 7.0 0.00 0.00 0.00 81 1007.3
20260505014505 63 5 2.0 7.0 0.00 0.00 0.00 81 1007.3
20260505014416 63 2 2.0 7.0 0.00 0.00 0.00 81 1007.1
20260505014404 63 1 2.0 7.0 0.00 0.00 0.00 81 1007.1
20260505014104 63 22 3.0 4.0 0.00 0.00 0.00 81 1007.1
20260505014005 63 37 2.0 4.0 0.00 0.00 0.00 81 1007.0
20260505013903 63 39 0.0 4.0 0.00 0.00 0.00 81 1007.1
20260505013806 63 38 3.0 4.0 0.00 0.00 0.00 81 1007.0
20260505013703 63 37 3.0 4.0 0.00 0.00 0.00 81 1007.0
20260505013607 63 34 2.0 4.0 0.00 0.00 0.00 81 1007.0
20260505013405 63 33 2.0 2.0 0.00 0.00 0.00 81 1007.1
20260505013306 63 34 2.0 2.0 0.00 0.00 0.00 81 1007.2
20260505013204 63 31 2.0 2.0 0.00 0.00 0.00 81 1007.1
20260505013103 63 34 1.0 2.0 0.00 0.00 0.00 81 1007.1
20260505013005 63 37 2.0 2.0 0.00 0.00 0.00 81 1007.0
20260505012904 63 38 1.0 2.0 0.00 0.00 0.00 81 1006.9
20260505012803 63 45 1.0 2.0 0.00 0.00 0.00 81 1007.2
20260505012703 63 40 2.0 2.0 0.00 0.00 0.00 81 1007.0
20260505012603 63 37 2.0 2.0 0.00 0.00 0.00 81 1007.1
20260505012503 63 31 1.0 2.0 0.00 0.00 0.00 81 1007.1
20260505012404 63 28 0.0 2.0 0.00 0.00 0.00 80 1007.1
20260505012304 63 24 1.0 2.0 0.00 0.00 0.00 80 1007.2
20260505012203 63 27 1.0 2.0 0.00 0.00 0.00 80 1007.0
20260505012103 63 24 1.0 2.0 0.00 0.00 0.00 80 1007.1
20260505012003 63 30 1.0 2.0 0.00 0.00 0.00 80 1006.9
20260505011909 63 31 0.0 2.0 0.00 0.00 0.00 80 1007.1
20260505011804 63 35 0.0 2.0 0.00 0.00 0.00 80 1007.0
20260505011704 63 46 1.0 2.0 0.00 0.00 0.00 80 1007.2
20260505011604 63 51 0.0 2.0 0.00 0.00 0.00 80 1007.0
20260505011505 63 51 0.0 2.0 0.00 0.00 0.00 80 1006.9
20260505011419 63 46 0.0 2.0 0.00 0.00 0.00 80 1007.2
20260505011405 63 43 0.0 4.0 0.00 0.00 0.00 80 1007.0
20260505011304 63 41 2.0 4.0 0.00 0.00 0.00 80 1007.0
20260505011103 63 45 0.0 4.0 0.00 0.00 0.00 80 1007.3
20260505011004 63 49 0.0 4.0 0.00 0.00 0.00 80 1007.1
20260505010904 63 56 2.0 4.0 0.00 0.00 0.00 79 1007.3
20260505010705 63 66 1.0 4.0 0.00 0.00 0.00 79 1006.9
20260505010617 63 62 1.0 4.0 0.00 0.00 0.00 79 1007.2
20260505010607 64 61 0.0 4.0 0.00 0.00 0.00 79 1007.2
20260505010507 63 50 1.0 4.0 0.00 0.00 0.00 79 1007.1
20260505010414 63 49 2.0 4.0 0.00 0.00 0.00 79 1007.0
20260505010304 64 50 2.0 4.0 0.00 0.00 0.00 79 1007.0
20260505010004 64 57 2.0 4.0 0.00 0.00 0.00 79 1007.0
20260505005904 64 65 2.0 4.0 0.00 0.00 0.00 79 1007.2
20260505005805 64 69 1.0 4.0 0.00 0.00 0.00 79 1007.0
20260505005703 64 70 2.0 4.0 0.00 0.00 0.00 79 1007.2
20260505005605 64 69 0.0 4.0 0.00 0.00 0.00 79 1006.9
20260505005503 64 68 1.0 4.0 0.00 0.00 0.00 79 1007.1
20260505005403 64 62 2.0 4.0 0.00 0.00 0.00 79 1007.1
20260505005204 64 49 0.0 4.0 0.00 0.00 0.00 79 1006.9
20260505005121 64 52 1.0 4.0 0.00 0.00 0.00 79 1006.9
20260505005104 64 54 1.0 4.0 0.00 0.00 0.00 79 1006.9
20260505005004 64 55 2.0 4.0 0.00 0.00 0.00 79 1007.0
20260505004803 64 57 2.0 4.0 0.00 0.00 0.00 78 1007.0
20260505004704 64 62 1.0 4.0 0.00 0.00 0.00 78 1006.9
20260505004603 64 54 2.0 2.0 0.00 0.00 0.00 78 1007.0
20260505004416 64 39 0.0 2.0 0.00 0.00 0.00 78 1006.9
20260505004403 64 35 0.0 2.0 0.00 0.00 0.00 78 1006.9
20260505004303 64 32 0.0 2.0 0.00 0.00 0.00 78 1006.9
20260505004214 64 26 0.0 4.0 0.00 0.00 0.00 78 1006.7
20260505004117 64 27 0.0 4.0 0.00 0.00 0.00 78 1006.8
20260505004106 64 29 0.0 4.0 0.00 0.00 0.00 78 1006.8
20260505003804 64 47 1.0 4.0 0.00 0.00 0.00 78 1006.9
20260505003703 64 64 1.0 4.0 0.00 0.00 0.00 78 1007.2
20260505003604 65 73 0.0 4.0 0.00 0.00 0.00 78 1006.9
20260505003503 64 73 1.0 4.0 0.00 0.00 0.00 77 1006.7
20260505003404 65 69 2.0 4.0 0.00 0.00 0.00 77 1007.0
20260505003303 65 67 1.0 4.0 0.00 0.00 0.00 77 1007.1
20260505003214 65 62 2.0 4.0 0.00 0.00 0.00 77 1006.9
20260505003203 65 59 2.0 4.0 0.00 0.00 0.00 77 1006.9
20260505003103 65 55 1.0 2.0 0.00 0.00 0.00 77 1007.1
20260505002905 65 49 1.0 2.0 0.00 0.00 0.00 77 1006.8
20260505002819 65 39 1.0 4.0 0.00 0.00 0.00 77 1007.1
20260505002804 65 37 1.0 4.0 0.00 0.00 0.00 77 1007.1
20260505002704 65 37 0.0 4.0 0.00 0.00 0.00 77 1006.9
20260505002505 65 36 1.0 4.0 0.00 0.00 0.00 77 1007.0
20260505002404 65 37 1.0 4.0 0.00 0.00 0.00 77 1006.8
20260505002205 65 39 2.0 4.0 0.00 0.00 0.00 78 1006.8
20260505002103 65 46 2.0 4.0 0.00 0.00 0.00 78 1006.8
20260505002004 65 54 1.0 4.0 0.00 0.00 0.00 78 1006.9
20260505001904 65 62 2.0 4.0 0.00 0.00 0.00 78 1006.9
20260505001804 65 70 1.0 4.0 0.00 0.00 0.00 78 1006.8
20260505001704 65 71 1.0 4.0 0.00 0.00 0.00 78 1006.9
20260505001603 65 71 2.0 4.0 0.00 0.00 0.00 78 1007.0
20260505001506 65 69 2.0 4.0 0.00 0.00 0.00 78 1006.9
20260505001408 65 64 2.0 4.0 0.00 0.00 0.00 78 1007.0
20260505001303 65 59 1.0 2.0 0.00 0.00 0.00 78 1006.8
20260505001205 65 58 1.0 2.0 0.00 0.00 0.00 78 1006.9
20260505001104 65 54 2.0 2.0 0.00 0.00 0.00 78 1006.8
20260505001003 65 43 0.0 2.0 0.00 0.00 0.00 78 1007.0
20260505000904 64 33 1.0 2.0 0.00 0.00 0.00 78 1007.0
20260505000804 64 27 1.0 2.0 0.00 0.00 0.00 78 1007.0
20260505000703 64 29 0.0 2.0 0.00 0.00 0.00 78 1006.9
20260505000604 64 25 1.0 2.0 0.00 0.00 0.00 78 1006.9
20260505000503 64 27 2.0 2.0 0.00 0.00 0.00 79 1006.7
20260505000406 64 33 2.0 2.0 0.00 0.00 0.00 79 1006.9
20260505000304 64 37 1.0 2.0 0.00 0.00 0.00 79 1007.0
20260505000204 64 34 1.0 2.0 0.00 0.00 0.00 79 1006.9
20260505000104 64 36 1.0 2.0 0.00 0.00 0.00 79 1007.0
20260505000004 64 38 0.0 2.0 0.00 0.00 0.00 78 1006.9
20260504235904 64 38 1.0 2.0 0.00 0.00 0.00 79 1006.9
20260504235803 64 41 1.0 2.0 0.00 0.00 0.00 79 1006.6
20260504235605 64 56 1.0 2.0 0.00 0.00 0.00 79 1007.0
20260504235504 64 55 0.0 2.0 0.00 0.00 0.00 79 1006.9
20260504235405 64 55 1.0 2.0 0.00 0.00 0.00 79 1006.7
20260504235205 64 48 0.0 2.0 0.00 0.00 0.00 79 1006.8
20260504235103 64 45 1.0 2.0 0.00 0.00 0.00 79 1006.8
20260504235015 64 43 0.0 2.0 0.00 0.00 0.00 79 1006.8
20260504235003 64 43 0.0 2.0 0.00 0.00 0.00 79 1006.6
20260504234919 64 43 1.0 2.0 0.00 0.00 0.00 79 1006.8
20260504234908 64 45 1.0 2.0 0.00 0.00 0.00 79 1006.8
20260504234603 64 50 0.0 2.0 0.00 0.00 0.00 79 1006.7
20260504234504 64 50 1.0 2.0 0.00 0.00 0.00 79 1006.7
20260504234403 64 54 1.0 2.0 0.00 0.00 0.00 78 1006.7
20260504234203 64 59 0.0 2.0 0.00 0.00 0.00 78 1006.5
20260504234104 64 64 0.0 2.0 0.00 0.00 0.00 78 1006.7
20260504234005 64 69 1.0 2.0 0.00 0.00 0.00 78 1006.6
20260504233905 64 70 0.0 2.0 0.00 0.00 0.00 78 1006.7
20260504233805 65 67 1.0 2.0 0.00 0.00 0.00 78 1006.7
20260504233704 65 66 1.0 2.0 0.00 0.00 0.00 78 1006.7
20260504233604 65 62 0.0 2.0 0.00 0.00 0.00 78 1006.5
20260504233505 65 59 1.0 2.0 0.00 0.00 0.00 78 1006.5
20260504233405 65 45 0.0 2.0 0.00 0.00 0.00 78 1006.5
20260504233204 65 22 0.0 2.0 0.00 0.00 0.00 78 1006.8
20260504233106 65 35 0.0 2.0 0.00 0.00 0.00 78 1006.5
20260504233005 65 41 0.0 2.0 0.00 0.00 0.00 78 1006.6
20260504232804 65 44 1.0 2.0 0.00 0.00 0.00 77 1006.6
20260504232704 65 42 1.0 2.0 0.00 0.00 0.00 77 1006.5
20260504232605 65 45 2.0 2.0 0.00 0.00 0.00 77 1006.5
20260504232504 65 46 1.0 2.0 0.00 0.00 0.00 77 1006.3
20260504232405 65 47 0.0 2.0 0.00 0.00 0.00 77 1006.5
20260504232309 65 52 0.0 2.0 0.00 0.00 0.00 77 1006.5
20260504232204 65 62 0.0 2.0 0.00 0.00 0.00 77 1006.5
20260504232104 65 62 1.0 2.0 0.00 0.00 0.00 77 1006.4
20260504232013 65 63 2.0 2.0 0.00 0.00 0.00 77 1006.4
20260504232003 65 65 2.0 2.0 0.00 0.00 0.00 77 1006.4
20260504231903 65 67 0.0 2.0 0.00 0.00 0.00 76 1006.6
20260504231705 65 62 0.0 2.0 0.00 0.00 0.00 76 1006.3
20260504231604 65 62 0.0 2.0 0.00 0.00 0.00 76 1006.2
20260504231504 65 62 1.0 2.0 0.00 0.00 0.00 76 1006.3
20260504231403 65 60 1.0 2.0 0.00 0.00 0.00 75 1006.3
20260504231303 65 63 1.0 2.0 0.00 0.00 0.00 75 1006.3
20260504231205 65 67 1.0 2.0 0.00 0.00 0.00 75 1006.3
20260504231103 65 56 0.0 2.0 0.00 0.00 0.00 75 1006.4
20260504230918 66 43 0.0 2.0 0.00 0.00 0.00 75 1006.2
20260504230904 66 41 0.0 2.0 0.00 0.00 0.00 75 1006.2
20260504230805 66 30 1.0 2.0 0.00 0.00 0.00 75 1006.4
20260504230605 66 22 1.0 2.0 0.00 0.00 0.00 74 1006.1
20260504230503 66 18 1.0 2.0 0.00 0.00 0.00 74 1006.4
20260504230403 66 23 0.0 2.0 0.00 0.00 0.00 74 1006.3
20260504230303 66 31 1.0 2.0 0.00 0.00 0.00 74 1006.2
20260504230208 66 40 2.0 2.0 0.00 0.00 0.00 74 1006.2
20260504230004 66 67 1.0 2.0 0.00 0.00 0.00 74 1006.1
20260504225903 66 70 1.0 2.0 0.00 0.00 0.00 74 1006.2
20260504225804 66 63 1.0 2.0 0.00 0.00 0.00 74 1006.0
20260504225705 66 63 0.0 2.0 0.00 0.00 0.00 74 1006.0
20260504225603 66 63 1.0 2.0 0.00 0.00 0.00 74 1006.2
20260504225503 66 64 1.0 4.0 0.00 0.00 0.00 74 1006.1
20260504225403 66 54 1.0 4.0 0.00 0.00 0.00 74 1006.1
20260504225315 66 57 1.0 4.0 0.00 0.00 0.00 74 1006.0
20260504225204 66 56 2.0 4.0 0.00 0.00 0.00 73 1006.1
20260504225016 66 63 1.0 4.0 0.00 0.00 0.00 73 1006.1
20260504225003 66 61 2.0 4.0 0.00 0.00 0.00 73 1006.0
20260504224903 66 67 2.0 4.0 0.00 0.00 0.00 73 1005.9
20260504224704 66 64 1.0 4.0 0.00 0.00 0.00 73 1006.1
20260504224603 66 66 2.0 4.0 0.00 0.00 0.00 73 1005.8
20260504224504 66 55 2.0 4.0 0.00 0.00 0.00 73 1006.2
20260504224404 66 45 2.0 4.0 0.00 0.00 0.00 73 1005.9
20260504224304 66 43 2.0 4.0 0.00 0.00 0.00 72 1006.1
20260504224203 67 43 1.0 4.0 0.00 0.00 0.00 72 1006.1
20260504224104 67 40 1.0 4.0 0.00 0.00 0.00 72 1006.0
20260504224004 67 39 1.0 4.0 0.00 0.00 0.00 72 1006.1
20260504223903 67 41 2.0 4.0 0.00 0.00 0.00 72 1006.1
20260504223804 67 43 2.0 4.0 0.00 0.00 0.00 72 1006.0
20260504223713 67 45 2.0 4.0 0.00 0.00 0.00 72 1005.9
20260504223604 66 47 1.0 4.0 0.00 0.00 0.00 73 1006.1
20260504223403 67 50 1.0 2.0 0.00 0.00 0.00 72 1006.0
20260504223317 67 52 1.0 2.0 0.00 0.00 0.00 72 1006.1
20260504223307 67 50 1.0 2.0 0.00 0.00 0.00 72 1006.1
20260504223203 67 45 1.0 2.0 0.00 0.00 0.00 72 1006.0
20260504223018 67 28 0.0 2.0 0.00 0.00 0.00 72 1005.7
20260504223005 67 26 0.0 2.0 0.00 0.00 0.00 72 1006.0
20260504222917 67 25 0.0 4.0 0.00 0.00 0.00 72 1005.8
20260504222909 67 24 0.0 4.0 0.00 0.00 0.00 72 1005.8
20260504222714 67 39 0.0 4.0 0.00 0.00 0.00 71 1005.8
20260504222604 67 43 2.0 4.0 0.00 0.00 0.00 71 1005.9
20260504222516 67 49 0.0 4.0 0.00 0.00 0.00 71 1005.8
20260504222403 67 55 2.0 4.0 0.00 0.00 0.00 71 1005.7
20260504222206 67 46 1.0 2.0 0.00 0.00 0.00 72 1005.9
20260504222104 67 37 1.0 2.0 0.00 0.00 0.00 72 1005.7
20260504222003 67 29 1.0 2.0 0.00 0.00 0.00 71 1005.8
20260504221904 67 30 1.0 2.0 0.00 0.00 0.00 71 1005.7
20260504221806 67 27 0.0 2.0 0.00 0.00 0.00 71 1005.7
20260504221704 67 24 0.0 2.0 0.00 0.00 0.00 71 1005.7
20260504221618 67 27 2.0 2.0 0.00 0.00 0.00 71 1005.6
20260504221603 67 29 2.0 2.0 0.00 0.00 0.00 71 1005.6
20260504221503 67 30 2.0 2.0 0.00 0.00 0.00 71 1005.6
20260504221304 67 40 1.0 2.0 0.00 0.00 0.00 70 1005.8
20260504221203 67 59 1.0 2.0 0.00 0.00 0.00 70 1005.7
20260504221104 67 67 0.0 2.0 0.00 0.00 0.00 70 1005.8
20260504221004 67 67 1.0 2.0 0.00 0.00 0.00 69 1005.6
20260504220907 67 45 0.0 2.0 0.00 0.00 0.00 69 1005.7
20260504220803 68 45 0.0 2.0 0.00 0.00 0.00 69 1005.7
20260504220703 67 37 0.0 2.0 0.00 0.00 0.00 69 1006.0
20260504220603 68 35 0.0 2.0 0.00 0.00 0.00 69 1005.6
20260504220504 68 40 0.0 2.0 0.00 0.00 0.00 69 1005.8
20260504220405 68 41 1.0 2.0 0.00 0.00 0.00 69 1005.7
20260504220305 68 43 1.0 2.0 0.00 0.00 0.00 69 1005.7
20260504220203 68 53 1.0 4.0 0.00 0.00 0.00 69 1005.7
20260504220007 68 66 0.0 4.0 0.00 0.00 0.00 68 1005.4
20260504215903 68 69 1.0 4.0 0.00 0.00 0.00 68 1005.5
20260504215803 68 67 1.0 4.0 0.00 0.00 0.00 68 1005.4
20260504215705 68 67 1.0 4.0 0.00 0.00 0.00 68 1005.4
20260504215603 68 61 1.0 2.0 0.00 0.00 0.00 68 1005.5
20260504215504 68 59 1.0 2.0 0.00 0.00 0.00 68 1005.6
20260504215403 68 60 1.0 2.0 0.00 0.00 0.00 67 1005.5
20260504215305 69 63 1.0 2.0 0.00 0.00 0.00 67 1005.6
20260504215203 68 60 1.0 2.0 0.00 0.00 0.00 67 1005.3
20260504215103 68 59 1.0 2.0 0.00 0.00 0.00 67 1005.6
20260504215005 68 59 1.0 2.0 0.00 0.00 0.00 67 1005.3
20260504214915 68 55 1.0 2.0 0.00 0.00 0.00 67 1005.3
20260504214904 68 53 1.0 2.0 0.00 0.00 0.00 67 1005.3
20260504214805 69 46 1.0 2.0 0.00 0.00 0.00 67 1005.6
20260504214604 69 55 0.0 2.0 0.00 0.00 0.00 67 1005.4
20260504214506 69 56 0.0 2.0 0.00 0.00 0.00 67 1005.5
20260504214404 69 60 1.0 2.0 0.00 0.00 0.00 67 1005.3
20260504214304 69 64 0.0 4.0 0.00 0.00 0.00 67 1005.3
20260504214204 69 65 1.0 4.0 0.00 0.00 0.00 67 1005.4
20260504214104 69 64 1.0 4.0 0.00 0.00 0.00 67 1005.4
20260504214005 69 64 2.0 4.0 0.00 0.00 0.00 67 1005.4
20260504213904 69 64 2.0 4.0 0.00 0.00 0.00 68 1005.4
20260504213804 69 64 2.0 4.0 0.00 0.00 0.00 67 1005.4
20260504213704 69 63 1.0 2.0 0.00 0.00 0.00 67 1005.4
20260504213603 69 66 2.0 2.0 0.00 0.00 0.00 67 1005.3
20260504213505 69 61 1.0 2.0 0.00 0.00 0.00 67 1005.5
20260504213403 69 53 0.0 2.0 0.00 0.00 0.00 66 1005.6
20260504213318 69 46 0.0 2.0 0.00 0.00 0.00 66 1005.6
20260504213204 69 37 1.0 2.0 0.00 0.00 0.00 66 1005.4
20260504213004 69 30 1.0 2.0 0.00 0.00 0.00 66 1005.4
20260504212904 69 30 0.0 2.0 0.00 0.00 0.00 66 1005.4
20260504212804 69 33 1.0 2.0 0.00 0.00 0.00 65 1005.6
20260504212707 69 34 1.0 2.0 0.00 0.00 0.00 65 1005.5
20260504212605 70 37 1.0 2.0 0.00 0.00 0.00 65 1005.6
20260504212516 70 35 0.0 2.0 0.00 0.00 0.00 65 1005.4
20260504212503 70 36 0.0 2.0 0.00 0.00 0.00 65 1005.4
20260504212415 70 41 1.0 2.0 0.00 0.00 0.00 64 1005.7
20260504212404 70 43 1.0 2.0 0.00 0.00 0.00 64 1005.7
20260504212110 70 45 0.0 2.0 0.00 0.00 0.00 64 1005.7
20260504212003 71 45 0.0 2.0 0.00 0.00 0.00 63 1005.8
20260504211918 71 45 0.0 2.0 0.00 0.00 0.00 63 1005.4
20260504211803 71 46 0.0 2.0 0.00 0.00 0.00 63 1005.5
20260504211605 71 57 0.0 2.0 0.00 0.00 0.00 63 1005.6
20260504211504 71 62 0.0 2.0 0.00 0.00 0.00 62 1005.8
20260504211405 71 67 0.0 2.0 0.00 0.00 0.00 62 1005.7
20260504211305 71 67 0.0 2.0 0.00 0.00 0.00 62 1005.6
20260504211203 71 67 0.0 2.0 0.00 0.00 0.00 62 1005.7
20260504211005 72 61 0.0 2.0 0.00 0.00 0.00 61 1005.4
20260504210903 72 55 1.0 2.0 0.00 0.00 0.00 61 1005.7
20260504210818 72 53 0.0 2.0 0.00 0.00 0.00 60 1005.7
20260504210805 72 52 0.0 2.0 0.00 0.00 0.00 60 1005.7
20260504210703 72 47 0.0 2.0 0.00 0.00 0.00 60 1005.8
20260504210503 73 39 0.0 2.0 0.00 0.00 0.00 59 1005.9
20260504210406 73 45 0.0 2.0 0.00 0.00 0.00 59 1005.7
20260504210303 73 50 0.0 2.0 0.00 0.00 0.00 59 1005.7
20260504210203 73 53 0.0 2.0 0.00 0.00 0.00 59 1005.8
20260504210118 73 54 0.0 2.0 0.00 0.00 0.00 59 1005.4
20260504210004 73 57 0.0 2.0 0.00 0.00 0.00 59 1005.8
20260504205804 73 45 1.0 4.0 0.00 0.00 0.00 58 1005.8
20260504205705 73 48 1.0 4.0 0.00 0.00 0.00 58 1005.7
20260504205604 73 45 0.0 4.0 0.00 0.00 0.00 57 1005.8
20260504205519 73 44 0.0 4.0 0.00 0.00 0.00 57 1005.6
20260504205404 73 44 2.0 4.0 0.00 0.00 0.00 56 1005.7
20260504205203 74 45 0.0 2.0 0.00 0.00 0.00 56 1005.8
20260504205105 74 52 0.0 2.0 0.00 0.00 0.00 56 1005.6
20260504205005 74 45 0.0 2.0 0.00 0.00 0.00 56 1005.6
20260504204904 74 45 0.0 2.0 0.00 0.00 0.00 57 1005.8
20260504204804 74 50 1.0 2.0 0.00 0.00 0.00 56 1005.7
20260504204605 74 51 0.0 4.0 0.00 0.00 0.00 56 1005.8
20260504204504 74 60 0.0 4.0 0.00 0.00 0.00 56 1005.6
20260504204404 74 53 0.0 4.0 0.00 0.00 0.00 57 1005.7
20260504204305 74 47 0.0 4.0 0.00 0.00 0.00 57 1005.8
20260504204216 74 42 0.0 4.0 0.00 0.00 0.00 57 1005.6
20260504204204 74 44 0.0 4.0 0.00 0.00 0.00 58 1005.7
20260504204104 73 43 2.0 4.0 0.00 0.00 0.00 58 1005.8
20260504204018 73 37 1.0 4.0 0.00 0.00 0.00 57 1005.6
20260504203904 74 37 0.0 4.0 0.00 0.00 0.00 57 1005.5
20260504203815 74 41 0.0 4.0 0.00 0.00 0.00 57 1005.5
20260504203704 73 38 2.0 6.0 0.00 0.00 0.00 57 1005.5
20260504203504 74 48 1.0 6.0 0.00 0.00 0.00 56 1005.6
20260504203404 74 50 1.0 6.0 0.00 0.00 0.00 57 1005.4
20260504203304 73 47 2.0 6.0 0.00 0.00 0.00 57 1005.5
20260504203203 73 42 2.0 6.0 0.00 0.00 0.00 56 1005.7
20260504203107 74 31 1.0 4.0 0.00 0.00 0.00 56 1005.6
20260504203003 74 28 0.0 4.0 0.00 0.00 0.00 56 1005.6
20260504202903 74 27 1.0 6.0 0.00 0.00 0.00 56 1005.5
20260504202805 74 34 2.0 6.0 0.00 0.00 0.00 56 1005.5
20260504202703 74 35 2.0 6.0 0.00 0.00 0.00 55 1005.8
20260504202605 74 39 1.0 6.0 0.00 0.00 0.00 56 1005.6
20260504202504 74 33 0.0 6.0 0.00 0.00 0.00 56 1005.3
20260504202304 74 29 1.0 4.0 0.00 0.00 0.00 56 1005.7
20260504202204 74 21 1.0 7.0 0.00 0.00 0.00 56 1005.4
20260504202003 73 16 1.0 7.0 0.00 0.00 0.00 57 1005.4
20260504201903 73 9 2.0 7.0 0.00 0.00 0.00 57 1005.4
20260504201803 73 2 4.0 7.0 0.00 0.00 0.00 56 1005.5
20260504201703 74 11 3.0 7.0 0.00 0.00 0.00 56 1005.7
20260504201603 74 12 2.0 7.0 0.00 0.00 0.00 56 1005.6
20260504201503 74 360 2.0 7.0 0.00 0.00 0.00 55 1005.4
20260504201403 74 360 2.0 7.0 0.00 0.00 0.00 55 1005.6
20260504201303 73 10 2.0 7.0 0.00 0.00 0.00 55 1005.6
20260504201204 73 3 4.0 7.0 0.00 0.00 0.00 55 1005.6
20260504201104 74 6 4.0 7.0 0.00 0.00 0.00 55 1005.7
20260504201003 74 14 1.0 4.0 0.00 0.00 0.00 55 1005.6
20260504200915 74 14 2.0 4.0 0.00 0.00 0.00 54 1005.6
20260504200805 74 354 1.0 7.0 0.00 0.00 0.00 55 1005.5
20260504200717 74 354 1.0 7.0 0.00 0.00 0.00 55 1005.6
20260504200604 74 347 2.0 7.0 0.00 0.00 0.00 56 1005.5
20260504200404 73 347 3.0 7.0 0.00 0.00 0.00 57 1005.6
20260504200304 73 352 4.0 7.0 0.00 0.00 0.00 57 1005.6
20260504200215 73 348 4.0 6.0 0.00 0.00 0.00 56 1005.6
20260504200210 74 345 2.0 4.0 0.00 0.00 0.00 56 1005.7
20260504195904 74 335 2.0 7.0 0.00 0.00 0.00 55 1005.5
20260504195814 74 333 2.0 7.0 0.00 0.00 0.00 56 1005.7
20260504195805 74 331 3.0 7.0 0.00 0.00 0.00 55 1005.7
20260504195704 74 328 2.0 7.0 0.00 0.00 0.00 55 1005.7
20260504195505 74 330 3.0 7.0 0.00 0.00 0.00 54 1005.6
20260504195405 74 323 1.0 6.0 0.00 0.00 0.00 55 1005.6
20260504195304 74 321 1.0 6.0 0.00 0.00 0.00 54 1005.6
20260504195204 74 329 0.0 6.0 0.00 0.00 0.00 55 1005.7
20260504195103 74 329 2.0 6.0 0.00 0.00 0.00 55 1005.8
20260504195004 74 327 2.0 4.0 0.00 0.00 0.00 55 1005.8
20260504194903 74 349 3.0 4.0 0.00 0.00 0.00 55 1005.8
20260504194804 75 344 2.0 6.0 0.00 0.00 0.00 54 1005.7
20260504194703 74 337 1.0 7.0 0.00 0.00 0.00 54 1005.7
20260504194603 74 339 1.0 7.0 0.00 0.00 0.00 55 1005.9
20260504194503 74 344 1.0 7.0 0.00 0.00 0.00 55 1005.9
20260504194404 73 346 2.0 7.0 0.00 0.00 0.00 56 1005.8
20260504194303 73 354 3.0 7.0 0.00 0.00 0.00 56 1006.0
20260504194217 73 3 4.0 7.0 0.00 0.00 0.00 56 1005.7
20260504194203 73 5 4.0 7.0 0.00 0.00 0.00 56 1005.8
20260504194103 73 7 3.0 7.0 0.00 0.00 0.00 55 1005.9
20260504193907 73 343 3.0 7.0 0.00 0.00 0.00 55 1005.9
20260504193804 73 341 4.0 7.0 0.00 0.00 0.00 55 1005.6
20260504193703 74 332 3.0 7.0 0.00 0.00 0.00 54 1005.9
20260504193618 73 330 4.0 7.0 0.00 0.00 0.00 55 1005.8
20260504193603 73 333 4.0 7.0 0.00 0.00 0.00 55 1005.8
20260504193504 73 342 4.0 7.0 0.00 0.00 0.00 55 1005.9
20260504193415 73 351 3.0 6.0 0.00 0.00 0.00 55 1005.9
20260504193307 74 350 4.0 6.0 0.00 0.00 0.00 54 1005.9
20260504193103 74 6 2.0 4.0 0.00 0.00 0.00 53 1005.8
20260504193003 74 6 2.0 4.0 0.00 0.00 0.00 52 1005.8
20260504192905 75 13 1.0 4.0 0.00 0.00 0.00 52 1005.9
20260504192817 75 20 2.0 4.0 0.00 0.00 0.00 52 1006.1
20260504192803 75 22 2.0 4.0 0.00 0.00 0.00 52 1006.1
20260504192703 75 22 2.0 4.0 0.00 0.00 0.00 52 1005.9
20260504192619 75 19 1.0 4.0 0.00 0.00 0.00 51 1006.1
20260504192503 75 348 0.0 8.0 0.00 0.00 0.00 52 1006.1
20260504192305 74 324 2.0 8.0 0.00 0.00 0.00 53 1005.9
20260504192203 73 325 2.0 8.0 0.00 0.00 0.00 52 1006.0
20260504192104 73 326 2.0 8.0 0.00 0.00 0.00 52 1006.1
20260504191905 74 348 2.0 7.0 0.00 0.00 0.00 52 1006.0
20260504191805 73 356 2.0 7.0 0.00 0.00 0.00 52 1006.0
20260504191606 73 10 4.0 7.0 0.00 0.00 0.00 52 1006.1
20260504191506 73 12 5.0 7.0 0.00 0.00 0.00 52 1006.0
20260504191405 74 14 3.0 7.0 0.00 0.00 0.00 51 1005.9
20260504191305 74 24 2.0 7.0 0.00 0.00 0.00 50 1006.1
20260504191214 74 25 2.0 7.0 0.00 0.00 0.00 50 1006.1
20260504191204 74 23 2.0 7.0 0.00 0.00 0.00 50 1006.1
20260504191103 74 21 3.0 7.0 0.00 0.00 0.00 51 1006.2
20260504191017 74 28 4.0 7.0 0.00 0.00 0.00 51 1006.1
20260504190705 75 14 2.0 7.0 0.00 0.00 0.00 49 1005.9
20260504190612 74 5 2.0 7.0 0.00 0.00 0.00 50 1006.3
20260504190504 74 353 2.0 7.0 0.00 0.00 0.00 52 1006.2
20260504190403 73 352 2.0 7.0 0.00 0.00 0.00 52 1006.1
20260504190304 73 355 3.0 7.0 0.00 0.00 0.00 52 1006.0
20260504190205 73 356 3.0 7.0 0.00 0.00 0.00 51 1006.1
20260504190104 74 353 3.0 7.0 0.00 0.00 0.00 50 1006.1
20260504190004 74 350 0.0 7.0 0.00 0.00 0.00 51 1006.1
20260504185903 73 339 2.0 7.0 0.00 0.00 0.00 52 1006.2
20260504185815 73 344 4.0 8.0 0.00 0.00 0.00 52 1006.2
20260504185804 73 343 3.0 8.0 0.00 0.00 0.00 52 1006.1
20260504185705 73 347 2.0 8.0 0.00 0.00 0.00 52 1006.2
20260504185503 73 348 4.0 8.0 0.00 0.00 0.00 53 1006.2
20260504185404 73 2 4.0 8.0 0.00 0.00 0.00 53 1006.3
20260504185204 72 5 4.0 9.0 0.00 0.00 0.00 53 1006.1
20260504185103 73 4 4.0 9.0 0.00 0.00 0.00 54 1006.1
20260504185004 72 10 6.0 9.0 0.00 0.00 0.00 54 1006.2
20260504184903 73 355 4.0 9.0 0.00 0.00 0.00 53 1006.2
20260504184805 73 337 4.0 9.0 0.00 0.00 0.00 53 1006.1
20260504184705 74 337 2.0 7.0 0.00 0.00 0.00 53 1006.3
20260504184603 72 339 3.0 7.0 0.00 0.00 0.00 54 1006.3
20260504184503 72 338 5.0 7.0 0.00 0.00 0.00 54 1006.2
20260504184405 73 350 4.0 7.0 0.00 0.00 0.00 53 1006.3
20260504184304 73 7 5.0 7.0 0.00 0.00 0.00 53 1006.2
20260504184204 74 6 4.0 6.0 0.00 0.00 0.00 51 1006.2
20260504184116 75 8 2.0 4.0 0.00 0.00 0.00 51 1006.1
20260504184105 75 3 2.0 4.0 0.00 0.00 0.00 51 1006.1
20260504184003 74 349 1.0 6.0 0.00 0.00 0.00 53 1006.0
20260504183803 73 336 3.0 8.0 0.00 0.00 0.00 53 1006.4
20260504183704 73 336 3.0 8.0 0.00 0.00 0.00 53 1006.2
20260504183603 74 336 2.0 8.0 0.00 0.00 0.00 52 1006.3
20260504183505 72 332 3.0 8.0 0.00 0.00 0.00 53 1006.3
20260504183405 72 335 6.0 8.0 0.00 0.00 0.00 53 1006.4
20260504183305 73 345 5.0 8.0 0.00 0.00 0.00 53 1006.2
20260504183203 73 349 4.0 8.0 0.00 0.00 0.00 53 1006.3
20260504183104 73 354 5.0 8.0 0.00 0.00 0.00 52 1006.2
20260504183004 73 23 3.0 7.0 0.00 0.00 0.00 52 1006.3
20260504182803 74 25 2.0 7.0 0.00 0.00 0.00 52 1006.4
20260504182703 74 16 2.0 7.0 0.00 0.00 0.00 53 1006.3
20260504182603 73 22 3.0 7.0 0.00 0.00 0.00 53 1006.5
20260504182503 72 19 4.0 7.0 0.00 0.00 0.00 53 1006.5
20260504182405 73 20 4.0 6.0 0.00 0.00 0.00 52 1006.6
20260504182304 73 20 2.0 6.0 0.00 0.00 0.00 52 1006.3
20260504182206 74 41 1.0 6.0 0.00 0.00 0.00 53 1006.3
20260504182103 74 38 1.0 6.0 0.00 0.00 0.00 53 1006.3
20260504182005 73 28 3.0 6.0 0.00 0.00 0.00 53 1006.3
20260504181904 73 15 3.0 6.0 0.00 0.00 0.00 53 1006.3
20260504181804 73 17 3.0 6.0 0.00 0.00 0.00 53 1006.4
20260504181703 73 11 1.0 6.0 0.00 0.00 0.00 53 1006.6
20260504181503 73 4 2.0 6.0 0.00 0.00 0.00 52 1006.5
20260504181404 73 7 4.0 6.0 0.00 0.00 0.00 53 1006.7
20260504181305 73 8 2.0 4.0 0.00 0.00 0.00 53 1006.6
20260504181204 74 8 2.0 4.0 0.00 0.00 0.00 53 1006.6
20260504181107 74 21 1.0 4.0 0.00 0.00 0.00 53 1006.7
20260504181004 73 18 3.0 6.0 0.00 0.00 0.00 53 1006.6
20260504180904 73 17 3.0 6.0 0.00 0.00 0.00 53 1006.6
20260504180804 74 10 1.0 6.0 0.00 0.00 0.00 53 1006.7
20260504180704 74 357 1.0 6.0 0.00 0.00 0.00 53 1006.7
20260504180604 74 341 2.0 6.0 0.00 0.00 0.00 54 1006.7
20260504180515 73 340 4.0 6.0 0.00 0.00 0.00 53 1006.7
20260504180505 73 342 4.0 6.0 0.00 0.00 0.00 53 1006.7
20260504180405 74 343 1.0 4.0 0.00 0.00 0.00 54 1006.4
20260504180205 74 332 3.0 4.0 0.00 0.00 0.00 52 1006.7
20260504180104 76 340 0.0 4.0 0.00 0.00 0.00 51 1006.9
20260504180004 75 345 1.0 7.0 0.00 0.00 0.00 51 1007.0
20260504175904 75 344 0.0 7.0 0.00 0.00 0.00 52 1006.8
20260504175804 73 348 2.0 7.0 0.00 0.00 0.00 53 1006.8
20260504175612 72 346 3.0 7.0 0.00 0.00 0.00 53 1006.7
20260504175603 72 344 3.0 7.0 0.00 0.00 0.00 53 1006.7
20260504175504 72 342 4.0 7.0 0.00 0.00 0.00 53 1007.0
20260504175415 72 349 2.0 6.0 0.00 0.00 0.00 54 1006.8
20260504175305 72 343 3.0 7.0 0.00 0.00 0.00 54 1006.8
20260504175104 72 346 2.0 7.0 0.00 0.00 0.00 54 1006.7
20260504175004 72 348 3.0 7.0 0.00 0.00 0.00 56 1006.9
20260504174904 71 346 4.0 7.0 0.00 0.00 0.00 55 1006.9
20260504174817 72 351 4.0 7.0 0.00 0.00 0.00 55 1007.2
20260504174806 72 353 4.0 7.0 0.00 0.00 0.00 55 1007.2
20260504174505 73 354 3.0 8.0 0.00 0.00 0.00 54 1007.0
20260504174404 73 355 2.0 8.0 0.00 0.00 0.00 54 1007.2
20260504174303 72 351 3.0 8.0 0.00 0.00 0.00 54 1007.1
20260504174205 72 355 3.0 8.0 0.00 0.00 0.00 54 1007.1
20260504174103 72 9 5.0 8.0 0.00 0.00 0.00 54 1006.9
20260504174015 72 22 4.0 6.0 0.00 0.00 0.00 53 1007.0
20260504174003 72 25 4.0 6.0 0.00 0.00 0.00 53 1007.0
20260504173905 72 18 4.0 6.0 0.00 0.00 0.00 53 1007.0
20260504173703 72 357 4.0 7.0 0.00 0.00 0.00 52 1007.1
20260504173614 73 352 3.0 7.0 0.00 0.00 0.00 53 1007.0
20260504173603 73 353 3.0 7.0 0.00 0.00 0.00 53 1007.0
20260504173508 73 353 2.0 7.0 0.00 0.00 0.00 53 1007.1
20260504173206 73 39 2.0 9.0 0.00 0.00 0.00 54 1006.8
20260504173103 72 41 2.0 9.0 0.00 0.00 0.00 56 1007.0
20260504173004 72 38 4.0 9.0 0.00 0.00 0.00 55 1007.2
20260504172803 73 20 2.0 8.0 0.00 0.00 0.00 54 1007.0
20260504172703 73 6 2.0 8.0 0.00 0.00 0.00 54 1007.2
20260504172616 73 6 1.0 8.0 0.00 0.00 0.00 54 1007.3
20260504172604 72 6 3.0 8.0 0.00 0.00 0.00 55 1007.1
20260504172506 72 359 2.0 8.0 0.00 0.00 0.00 56 1007.0
20260504172304 71 352 4.0 8.0 0.00 0.00 0.00 55 1007.4
20260504172215 71 349 4.0 6.0 0.00 0.00 0.00 55 1007.4
20260504172204 71 353 2.0 7.0 0.00 0.00 0.00 55 1007.4
20260504172103 71 352 3.0 7.0 0.00 0.00 0.00 55 1007.4
20260504171905 71 357 4.0 7.0 0.00 0.00 0.00 56 1007.2
20260504171806 71 15 3.0 7.0 0.00 0.00 0.00 55 1007.5
20260504171704 71 27 4.0 7.0 0.00 0.00 0.00 56 1007.4
20260504171604 72 15 3.0 7.0 0.00 0.00 0.00 55 1007.4
20260504171504 73 16 1.0 7.0 0.00 0.00 0.00 55 1007.4
20260504171404 72 7 2.0 7.0 0.00 0.00 0.00 57 1007.4
20260504171304 71 1 3.0 7.0 0.00 0.00 0.00 57 1007.5
20260504171204 71 358 4.0 7.0 0.00 0.00 0.00 56 1007.4
20260504171119 72 9 3.0 7.0 0.00 0.00 0.00 55 1007.4
20260504171104 72 16 3.0 7.0 0.00 0.00 0.00 55 1007.4
20260504171004 72 33 2.0 7.0 0.00 0.00 0.00 56 1007.4
20260504170916 72 33 3.0 7.0 0.00 0.00 0.00 55 1007.3
20260504170815 73 27 2.0 7.0 0.00 0.00 0.00 56 1007.2
20260504170805 73 25 2.0 7.0 0.00 0.00 0.00 56 1007.2
20260504170714 72 40 1.0 7.0 0.00 0.00 0.00 56 1007.5
20260504170405 72 13 3.0 8.0 0.00 0.00 0.00 57 1007.4
20260504170304 72 20 2.0 8.0 0.00 0.00 0.00 57 1007.3
20260504170203 71 9 4.0 8.0 0.00 0.00 0.00 58 1007.5
20260504170104 71 358 5.0 8.0 0.00 0.00 0.00 59 1007.5
20260504160403 71 6 2.0 4.0 0.00 0.00 0.00 58 1008.9
20260504160304 71 356 2.0 4.0 0.00 0.00 0.00 58 1009.0
20260504160203 72 349 1.0 6.0 0.00 0.00 0.00 59 1009.0
20260504160107 71 338 2.0 6.0 0.00 0.00 0.00 60 1009.1
20260504151103 69 29 2.0 4.0 0.00 0.00 0.00 62 1009.8
20260504151005 69 39 2.0 4.0 0.00 0.00 0.00 62 1009.7
20260504150903 69 13 1.0 4.0 0.00 0.00 0.00 61 1009.8
20260504150803 69 342 0.0 4.0 0.00 0.00 0.00 62 1009.7
20260504150705 68 327 2.0 4.0 0.00 0.00 0.00 62 1009.7
20260504150608 69 300 2.0 4.0 0.00 0.00 0.00 63 1009.6
20260504150517 68 300 1.0 4.0 0.00 0.00 0.00 63 1009.8
20260504150503 68 306 1.0 4.0 0.00 0.00 0.00 63 1009.8
20260504150416 68 319 2.0 4.0 0.00 0.00 0.00 63 1009.7
20260504150405 68 322 2.0 4.0 0.00 0.00 0.00 63 1009.7
20260504150106 67 345 2.0 7.0 0.00 0.00 0.00 66 1009.7
20260504141104 62 342 5.0 8.0 0.00 0.00 0.00 70 1009.7
20260504141003 62 341 4.0 7.0 0.00 0.00 0.00 70 1009.6
20260504140903 62 347 2.0 7.0 0.00 0.00 0.00 71 1009.8
20260504140805 62 351 4.0 7.0 0.00 0.00 0.00 71 1009.7
20260504140705 62 348 3.0 7.0 0.00 0.00 0.00 71 1010.1
20260504140604 62 353 2.0 6.0 0.00 0.00 0.00 71 1010.0
20260504140503 62 356 4.0 6.0 0.00 0.00 0.00 71 1009.6
20260504140404 62 353 3.0 6.0 0.00 0.00 0.00 71 1009.7
20260504140303 62 1 2.0 6.0 0.00 0.00 0.00 71 1009.9
20260504140203 62 6 3.0 6.0 0.00 0.00 0.00 70 1009.8
20260504140107 63 3 2.0 8.0 0.00 0.00 0.00 70 1009.7
20260504130817 57 355 2.0 7.0 0.00 0.00 0.00 77 1010.0
20260504130703 57 353 2.0 8.0 0.00 0.00 0.00 78 1010.1
20260504130513 57 345 4.0 11.0 0.00 0.00 0.00 77 1010.0
20260504130505 57 343 4.0 11.0 0.00 0.00 0.00 77 1010.0
20260504130405 57 340 4.0 11.0 0.00 0.00 0.00 78 1010.1
20260504130204 56 341 8.0 11.0 0.00 0.00 0.00 77 1009.8
20260504130104 57 345 3.0 11.0 0.00 0.00 0.00 77 1010.0